Year,Month,Day,Hour,Minute,Value (Times are PST for temperature in C)
2017,09,05,00,00,21.40
2017,09,05,00,01,21.40
2017,09,05,00,02,21.40
2017,09,05,00,03,21.40
2017,09,05,00,04,21.40
2017,09,05,00,05,21.40
2017,09,05,00,06,21.40
2017,09,05,00,07,21.40
2017,09,05,00,08,21.40
2017,09,05,00,09,21.40
2017,09,05,00,10,21.40
2017,09,05,00,11,21.40
2017,09,05,00,12,21.40
2017,09,05,00,13,21.40
2017,09,05,00,14,21.40
2017,09,05,00,15,21.40
2017,09,05,00,16,21.30
2017,09,05,00,17,21.30
2017,09,05,00,18,21.30
2017,09,05,00,19,21.30
2017,09,05,00,20,21.20
2017,09,05,00,21,21.20
2017,09,05,00,22,21.20
2017,09,05,00,23,21.10
2017,09,05,00,24,21.10
2017,09,05,00,25,21.10
2017,09,05,00,26,21.00
2017,09,05,00,27,21.00
2017,09,05,00,28,20.90
2017,09,05,00,29,20.90
2017,09,05,00,30,20.90
2017,09,05,00,31,20.90
2017,09,05,00,32,20.90
2017,09,05,00,33,20.80
2017,09,05,00,34,20.80
2017,09,05,00,35,20.80
2017,09,05,00,36,20.80
2017,09,05,00,37,20.80
2017,09,05,00,38,20.80
2017,09,05,00,39,20.80
2017,09,05,00,40,20.80
2017,09,05,00,41,20.80
2017,09,05,00,42,20.80
2017,09,05,00,43,20.70
2017,09,05,00,44,20.70
2017,09,05,00,45,20.70
2017,09,05,00,46,20.70
2017,09,05,00,47,20.70
2017,09,05,00,48,20.70
2017,09,05,00,49,20.60
2017,09,05,00,50,20.60
2017,09,05,00,51,20.60
2017,09,05,00,52,20.60
2017,09,05,00,53,20.50
2017,09,05,00,54,20.50
2017,09,05,00,55,20.50
2017,09,05,00,56,20.50
2017,09,05,00,57,20.50
2017,09,05,00,58,20.50
2017,09,05,00,59,20.50
2017,09,05,01,00,20.50
2017,09,05,01,01,20.50
2017,09,05,01,02,20.50
2017,09,05,01,03,20.50
2017,09,05,01,04,20.50
2017,09,05,01,05,20.50
2017,09,05,01,06,20.40
2017,09,05,01,07,20.40
2017,09,05,01,08,20.40
2017,09,05,01,09,20.40
2017,09,05,01,10,20.40
2017,09,05,01,11,20.40
2017,09,05,01,12,20.40
2017,09,05,01,13,20.30
2017,09,05,01,14,20.30
2017,09,05,01,15,20.30
2017,09,05,01,16,20.30
2017,09,05,01,17,20.30
2017,09,05,01,18,20.30
2017,09,05,01,19,20.30
2017,09,05,01,20,20.30
2017,09,05,01,21,20.30
2017,09,05,01,22,20.30
2017,09,05,01,23,20.30
2017,09,05,01,24,20.40
2017,09,05,01,25,20.40
2017,09,05,01,26,20.40
2017,09,05,01,27,20.40
2017,09,05,01,28,20.40
2017,09,05,01,29,20.40
2017,09,05,01,30,20.40
2017,09,05,01,31,20.40
2017,09,05,01,32,20.40
2017,09,05,01,33,20.40
2017,09,05,01,34,20.40
2017,09,05,01,35,20.30
2017,09,05,01,36,20.30
2017,09,05,01,37,20.30
2017,09,05,01,38,20.30
2017,09,05,01,39,20.30
2017,09,05,01,40,20.30
2017,09,05,01,41,20.30
2017,09,05,01,42,20.30
2017,09,05,01,43,20.30
2017,09,05,01,44,20.30
2017,09,05,01,45,20.30
2017,09,05,01,46,20.30
2017,09,05,01,47,20.30
2017,09,05,01,48,20.30
2017,09,05,01,49,20.30
2017,09,05,01,50,20.30
2017,09,05,01,51,20.30
2017,09,05,01,52,20.30
2017,09,05,01,53,20.30
2017,09,05,01,54,20.30
2017,09,05,01,55,20.30
2017,09,05,01,56,20.30
2017,09,05,01,57,20.30
2017,09,05,01,58,20.30
2017,09,05,01,59,20.30
2017,09,05,02,00,20.30
2017,09,05,02,01,20.30
2017,09,05,02,02,20.20
2017,09,05,02,03,20.20
2017,09,05,02,04,20.20
2017,09,05,02,05,20.20
2017,09,05,02,06,20.20
2017,09,05,02,07,20.20
2017,09,05,02,08,20.20
2017,09,05,02,09,20.20
2017,09,05,02,10,20.20
2017,09,05,02,11,20.20
2017,09,05,02,12,20.20
2017,09,05,02,13,20.20
2017,09,05,02,14,20.20
2017,09,05,02,15,20.20
2017,09,05,02,16,20.20
2017,09,05,02,17,20.20
2017,09,05,02,18,20.20
2017,09,05,02,19,20.20
2017,09,05,02,20,20.20
2017,09,05,02,21,20.20
2017,09,05,02,22,20.20
2017,09,05,02,23,20.20
2017,09,05,02,24,20.20
2017,09,05,02,25,20.20
2017,09,05,02,26,20.20
2017,09,05,02,27,20.10
2017,09,05,02,28,20.10
2017,09,05,02,29,20.20
2017,09,05,02,30,20.20
2017,09,05,02,31,20.20
2017,09,05,02,32,20.20
2017,09,05,02,33,20.10
2017,09,05,02,34,20.10
2017,09,05,02,35,20.10
2017,09,05,02,36,20.10
2017,09,05,02,37,20.10
2017,09,05,02,38,20.10
2017,09,05,02,39,20.10
2017,09,05,02,40,20.10
2017,09,05,02,41,20.10
2017,09,05,02,42,20.10
2017,09,05,02,43,20.10
2017,09,05,02,44,20.10
2017,09,05,02,45,20.10
2017,09,05,02,46,20.10
2017,09,05,02,47,20.10
2017,09,05,02,48,20.10
2017,09,05,02,49,20.10
2017,09,05,02,50,20.10
2017,09,05,02,51,20.10
2017,09,05,02,52,20.10
2017,09,05,02,53,20.10
2017,09,05,02,54,20.10
2017,09,05,02,55,20.10
2017,09,05,02,56,20.10
2017,09,05,02,57,20.10
2017,09,05,02,58,20.10
2017,09,05,02,59,20.10
2017,09,05,03,00,20.10
2017,09,05,03,01,20.10
2017,09,05,03,02,20.10
2017,09,05,03,03,20.10
2017,09,05,03,04,20.10
2017,09,05,03,05,20.10
2017,09,05,03,06,20.10
2017,09,05,03,07,20.10
2017,09,05,03,08,20.00
2017,09,05,03,09,20.00
2017,09,05,03,10,20.00
2017,09,05,03,11,20.00
2017,09,05,03,12,20.00
2017,09,05,03,13,19.90
2017,09,05,03,14,19.90
2017,09,05,03,15,19.90
2017,09,05,03,16,19.90
2017,09,05,03,17,19.90
2017,09,05,03,18,19.90
2017,09,05,03,19,19.90
2017,09,05,03,20,19.90
2017,09,05,03,21,19.80
2017,09,05,03,22,19.80
2017,09,05,03,23,19.80
2017,09,05,03,24,19.80
2017,09,05,03,25,19.80
2017,09,05,03,26,19.80
2017,09,05,03,27,19.80
2017,09,05,03,28,19.80
2017,09,05,03,29,19.80
2017,09,05,03,30,19.80
2017,09,05,03,31,19.80
2017,09,05,03,32,19.80
2017,09,05,03,33,19.80
2017,09,05,03,34,19.80
2017,09,05,03,35,19.80
2017,09,05,03,36,19.80
2017,09,05,03,37,19.80
2017,09,05,03,38,19.80
2017,09,05,03,39,19.80
2017,09,05,03,40,19.80
2017,09,05,03,41,19.80
2017,09,05,03,42,19.80
2017,09,05,03,43,19.80
2017,09,05,03,44,19.70
2017,09,05,03,45,19.70
2017,09,05,03,46,19.70
2017,09,05,03,47,19.70
2017,09,05,03,48,19.70
2017,09,05,03,49,19.70
2017,09,05,03,50,19.70
2017,09,05,03,51,19.70
2017,09,05,03,52,19.70
2017,09,05,03,53,19.70
2017,09,05,03,54,19.70
2017,09,05,03,55,19.70
2017,09,05,03,56,19.70
2017,09,05,03,57,19.60
2017,09,05,03,58,19.60
2017,09,05,03,59,19.60
2017,09,05,04,00,19.60
2017,09,05,04,01,19.60
2017,09,05,04,02,19.60
2017,09,05,04,03,19.60
2017,09,05,04,04,19.60
2017,09,05,04,05,19.60
2017,09,05,04,06,19.60
2017,09,05,04,07,19.60
2017,09,05,04,08,19.50
2017,09,05,04,09,19.50
2017,09,05,04,10,19.50
2017,09,05,04,11,19.50
2017,09,05,04,12,19.50
2017,09,05,04,13,19.50
2017,09,05,04,14,19.50
2017,09,05,04,15,19.50
2017,09,05,04,16,19.50
2017,09,05,04,17,19.50
2017,09,05,04,18,19.50
2017,09,05,04,19,19.50
2017,09,05,04,20,19.50
2017,09,05,04,21,19.50
2017,09,05,04,22,19.40
2017,09,05,04,23,19.40
2017,09,05,04,24,19.40
2017,09,05,04,25,19.40
2017,09,05,04,26,19.40
2017,09,05,04,27,19.40
2017,09,05,04,28,19.40
2017,09,05,04,29,19.50
2017,09,05,04,30,19.50
2017,09,05,04,31,19.50
2017,09,05,04,32,19.50
2017,09,05,04,33,19.50
2017,09,05,04,34,19.50
2017,09,05,04,35,19.40
2017,09,05,04,36,19.40
2017,09,05,04,37,19.40
2017,09,05,04,38,19.40
2017,09,05,04,39,19.40
2017,09,05,04,40,19.40
2017,09,05,04,41,19.40
2017,09,05,04,42,19.40
2017,09,05,04,43,19.40
2017,09,05,04,44,19.30
2017,09,05,04,45,19.30
2017,09,05,04,46,19.30
2017,09,05,04,47,19.30
2017,09,05,04,48,19.30
2017,09,05,04,49,19.30
2017,09,05,04,50,19.30
2017,09,05,04,51,19.30
2017,09,05,04,52,19.30
2017,09,05,04,53,19.30
2017,09,05,04,54,19.30
2017,09,05,04,55,19.30
2017,09,05,04,56,19.30
2017,09,05,04,57,19.30
2017,09,05,04,58,19.30
2017,09,05,04,59,19.30
2017,09,05,05,00,19.30
2017,09,05,05,01,19.30
2017,09,05,05,02,19.20
2017,09,05,05,03,19.20
2017,09,05,05,04,19.20
2017,09,05,05,05,19.20
2017,09,05,05,06,19.20
2017,09,05,05,07,19.20
2017,09,05,05,08,19.20
2017,09,05,05,09,19.20
2017,09,05,05,10,19.20
2017,09,05,05,11,19.20
2017,09,05,05,12,19.20
2017,09,05,05,13,19.20
2017,09,05,05,14,19.20
2017,09,05,05,15,19.20
2017,09,05,05,16,19.20
2017,09,05,05,17,19.20
2017,09,05,05,18,19.20
2017,09,05,05,19,19.20
2017,09,05,05,20,19.20
2017,09,05,05,21,19.20
2017,09,05,05,22,19.20
2017,09,05,05,23,19.20
2017,09,05,05,24,19.20
2017,09,05,05,25,19.20
2017,09,05,05,26,19.20
2017,09,05,05,27,19.20
2017,09,05,05,28,19.20
2017,09,05,05,29,19.20
2017,09,05,05,30,19.20
2017,09,05,05,31,19.20
2017,09,05,05,32,19.20
2017,09,05,05,33,19.20
2017,09,05,05,34,19.20
2017,09,05,05,35,19.20
2017,09,05,05,36,19.20
2017,09,05,05,37,19.20
2017,09,05,05,38,19.20
2017,09,05,05,39,19.20
2017,09,05,05,40,19.20
2017,09,05,05,41,19.20
2017,09,05,05,42,19.20
2017,09,05,05,43,19.20
2017,09,05,05,44,19.20
2017,09,05,05,45,19.10
2017,09,05,05,46,19.10
2017,09,05,05,47,19.10
2017,09,05,05,48,19.10
2017,09,05,05,49,19.10
2017,09,05,05,50,19.10
2017,09,05,05,51,19.10
2017,09,05,05,52,19.10
2017,09,05,05,53,19.10
2017,09,05,05,54,19.10
2017,09,05,05,55,19.10
2017,09,05,05,56,19.00
2017,09,05,05,57,19.00
2017,09,05,05,58,19.00
2017,09,05,05,59,19.00
2017,09,05,06,00,19.00
2017,09,05,06,01,19.00
2017,09,05,06,02,19.00
2017,09,05,06,03,19.00
2017,09,05,06,04,19.00
2017,09,05,06,05,19.00
2017,09,05,06,06,19.00
2017,09,05,06,07,19.00
2017,09,05,06,08,19.00
2017,09,05,06,09,19.00
2017,09,05,06,10,19.00
2017,09,05,06,11,19.00
2017,09,05,06,12,19.00
2017,09,05,06,13,19.00
2017,09,05,06,14,19.00
2017,09,05,06,15,19.00
2017,09,05,06,16,19.00
2017,09,05,06,17,19.00
2017,09,05,06,18,19.00
2017,09,05,06,19,19.00
2017,09,05,06,20,19.00
2017,09,05,06,21,19.00
2017,09,05,06,22,18.90
2017,09,05,06,23,19.00
2017,09,05,06,24,18.90
2017,09,05,06,25,18.90
2017,09,05,06,26,19.00
2017,09,05,06,27,18.90
2017,09,05,06,28,18.90
2017,09,05,06,29,18.90
2017,09,05,06,30,18.90
2017,09,05,06,31,18.90
2017,09,05,06,32,18.90
2017,09,05,06,33,18.90
2017,09,05,06,34,18.90
2017,09,05,06,35,18.90
2017,09,05,06,36,18.90
2017,09,05,06,37,19.00
2017,09,05,06,38,19.00
2017,09,05,06,39,19.00
2017,09,05,06,40,19.00
2017,09,05,06,41,19.00
2017,09,05,06,42,19.00
2017,09,05,06,43,19.00
2017,09,05,06,44,19.00
2017,09,05,06,45,19.00
2017,09,05,06,46,19.00
2017,09,05,06,47,19.00
2017,09,05,06,48,19.00
2017,09,05,06,49,19.00
2017,09,05,06,50,19.00
2017,09,05,06,51,19.00
2017,09,05,06,52,19.10
2017,09,05,06,53,19.10
2017,09,05,06,54,19.10
2017,09,05,06,55,19.10
2017,09,05,06,56,19.10
2017,09,05,06,57,19.10
2017,09,05,06,58,19.10
2017,09,05,06,59,19.00
2017,09,05,07,00,19.00
2017,09,05,07,01,19.00
2017,09,05,07,02,19.00
2017,09,05,07,03,19.00
2017,09,05,07,04,19.00
2017,09,05,07,05,19.00
2017,09,05,07,06,19.00
2017,09,05,07,07,18.90
2017,09,05,07,08,18.90
2017,09,05,07,09,18.90
2017,09,05,07,10,18.90
2017,09,05,07,11,18.90
2017,09,05,07,12,18.90
2017,09,05,07,13,18.90
2017,09,05,07,14,18.90
2017,09,05,07,15,18.90
2017,09,05,07,16,18.90
2017,09,05,07,17,18.90
2017,09,05,07,18,18.90
2017,09,05,07,19,18.90
2017,09,05,07,20,18.90
2017,09,05,07,21,18.90
2017,09,05,07,22,18.90
2017,09,05,07,23,18.90
2017,09,05,07,24,18.90
2017,09,05,07,25,18.90
2017,09,05,07,26,18.90
2017,09,05,07,27,18.90
2017,09,05,07,28,18.90
2017,09,05,07,29,18.90
2017,09,05,07,30,18.90
2017,09,05,07,31,18.90
2017,09,05,07,32,18.90
2017,09,05,07,33,18.90
2017,09,05,07,34,18.90
2017,09,05,07,35,18.90
2017,09,05,07,36,18.90
2017,09,05,07,37,18.90
2017,09,05,07,38,18.90
2017,09,05,07,39,18.90
2017,09,05,07,40,18.90
2017,09,05,07,41,18.90
2017,09,05,07,42,18.90
2017,09,05,07,43,18.90
2017,09,05,07,44,18.90
2017,09,05,07,45,18.90
2017,09,05,07,46,19.00
2017,09,05,07,47,19.00
2017,09,05,07,48,19.00
2017,09,05,07,49,19.00
2017,09,05,07,50,19.00
2017,09,05,07,51,19.00
2017,09,05,07,52,19.00
2017,09,05,07,53,19.00
2017,09,05,07,54,19.00
2017,09,05,07,55,19.00
2017,09,05,07,56,18.90
2017,09,05,07,57,18.90
2017,09,05,07,58,18.90
2017,09,05,07,59,18.90
2017,09,05,08,00,18.90
2017,09,05,08,01,18.90
2017,09,05,08,02,18.90
2017,09,05,08,03,18.90
2017,09,05,08,04,18.90
2017,09,05,08,05,18.90
2017,09,05,08,06,18.90
2017,09,05,08,07,18.90
2017,09,05,08,08,18.90
2017,09,05,08,09,18.90
2017,09,05,08,10,18.90
2017,09,05,08,11,18.90
2017,09,05,08,12,18.90
2017,09,05,08,13,18.90
2017,09,05,08,14,19.00
2017,09,05,08,15,19.00
2017,09,05,08,16,19.00
2017,09,05,08,17,19.10
2017,09,05,08,18,19.10
2017,09,05,08,19,19.10
2017,09,05,08,20,19.10
2017,09,05,08,21,19.20
2017,09,05,08,22,19.20
2017,09,05,08,23,19.20
2017,09,05,08,24,19.20
2017,09,05,08,25,19.20
2017,09,05,08,26,19.30
2017,09,05,08,27,19.30
2017,09,05,08,28,19.30
2017,09,05,08,29,19.30
2017,09,05,08,30,19.30
2017,09,05,08,31,19.30
2017,09,05,08,32,19.40
2017,09,05,08,33,19.40
2017,09,05,08,34,19.40
2017,09,05,08,35,19.40
2017,09,05,08,36,19.50
2017,09,05,08,37,19.50
2017,09,05,08,38,19.50
2017,09,05,08,39,19.60
2017,09,05,08,40,19.60
2017,09,05,08,41,19.60
2017,09,05,08,42,19.60
2017,09,05,08,43,19.60
2017,09,05,08,44,19.60
2017,09,05,08,45,19.60
2017,09,05,08,46,19.70
2017,09,05,08,47,19.70
2017,09,05,08,48,19.70
2017,09,05,08,49,19.70
2017,09,05,08,50,19.80
2017,09,05,08,51,19.80
2017,09,05,08,52,19.80
2017,09,05,08,53,19.80
2017,09,05,08,54,19.80
2017,09,05,08,55,19.80
2017,09,05,08,56,19.90
2017,09,05,08,57,19.90
2017,09,05,08,58,19.90
2017,09,05,08,59,20.00
2017,09,05,09,00,20.00
2017,09,05,09,01,20.10
2017,09,05,09,02,20.10
2017,09,05,09,03,20.10
2017,09,05,09,04,20.20
2017,09,05,09,05,20.20
2017,09,05,09,06,20.20
2017,09,05,09,07,20.30
2017,09,05,09,08,20.30
2017,09,05,09,09,20.30
2017,09,05,09,10,20.30
2017,09,05,09,11,20.40
2017,09,05,09,12,20.40
2017,09,05,09,13,20.40
2017,09,05,09,14,20.40
2017,09,05,09,15,20.50
2017,09,05,09,16,20.50
2017,09,05,09,17,20.50
2017,09,05,09,18,20.50
2017,09,05,09,19,20.50
2017,09,05,09,20,20.50
2017,09,05,09,21,20.50
2017,09,05,09,22,20.50
2017,09,05,09,23,20.50
2017,09,05,09,24,20.60
2017,09,05,09,25,20.60
2017,09,05,09,26,20.60
2017,09,05,09,27,20.60
2017,09,05,09,28,20.50
2017,09,05,09,29,20.50
2017,09,05,09,30,20.50
2017,09,05,09,31,20.50
2017,09,05,09,32,20.50
2017,09,05,09,33,20.50
2017,09,05,09,34,20.60
2017,09,05,09,35,20.60
2017,09,05,09,36,20.60
2017,09,05,09,37,20.60
2017,09,05,09,38,20.60
2017,09,05,09,39,20.60
2017,09,05,09,40,20.60
2017,09,05,09,41,20.60
2017,09,05,09,42,20.70
2017,09,05,09,43,20.70
2017,09,05,09,44,20.70
2017,09,05,09,45,20.80
2017,09,05,09,46,20.80
2017,09,05,09,47,20.90
2017,09,05,09,48,20.90
2017,09,05,09,49,21.00
2017,09,05,09,50,21.00
2017,09,05,09,51,21.10
2017,09,05,09,52,21.10
2017,09,05,09,53,21.20
2017,09,05,09,54,21.30
2017,09,05,09,55,21.30
2017,09,05,09,56,21.40
2017,09,05,09,57,21.50
2017,09,05,09,58,21.50
2017,09,05,09,59,21.60
2017,09,05,10,00,21.60
2017,09,05,10,01,21.70
2017,09,05,10,02,21.70
2017,09,05,10,03,21.80
2017,09,05,10,04,21.80
2017,09,05,10,05,21.90
2017,09,05,10,06,21.90
2017,09,05,10,07,21.90
2017,09,05,10,08,22.00
2017,09,05,10,09,22.10
2017,09,05,10,10,22.10
2017,09,05,10,11,22.10
2017,09,05,10,12,22.20
2017,09,05,10,13,22.20
2017,09,05,10,14,22.30
2017,09,05,10,15,22.30
2017,09,05,10,16,22.40
2017,09,05,10,17,22.50
2017,09,05,10,18,22.50
2017,09,05,10,19,22.60
2017,09,05,10,20,22.60
2017,09,05,10,21,22.70
2017,09,05,10,22,22.80
2017,09,05,10,23,22.80
2017,09,05,10,24,22.80
2017,09,05,10,25,22.90
2017,09,05,10,26,22.90
2017,09,05,10,27,23.00
2017,09,05,10,28,23.10
2017,09,05,10,29,23.10
2017,09,05,10,30,23.20
2017,09,05,10,31,23.20
2017,09,05,10,32,23.30
2017,09,05,10,33,23.40
2017,09,05,10,34,23.40
2017,09,05,10,35,23.50
2017,09,05,10,36,23.50
2017,09,05,10,37,23.60
2017,09,05,10,38,23.70
2017,09,05,10,39,23.70
2017,09,05,10,40,23.70
2017,09,05,10,41,23.80
2017,09,05,10,42,23.80
2017,09,05,10,43,23.80
2017,09,05,10,44,23.80
2017,09,05,10,45,23.90
2017,09,05,10,46,23.90
2017,09,05,10,47,23.90
2017,09,05,10,48,23.90
2017,09,05,10,49,24.00
2017,09,05,10,50,24.10
2017,09,05,10,51,24.10
2017,09,05,10,52,24.20
2017,09,05,10,53,24.20
2017,09,05,10,54,24.30
2017,09,05,10,55,24.30
2017,09,05,10,56,24.40
2017,09,05,10,57,24.40
2017,09,05,10,58,24.50
2017,09,05,10,59,24.50
2017,09,05,11,00,24.60
2017,09,05,11,01,24.60
2017,09,05,11,02,24.60
2017,09,05,11,03,24.60
2017,09,05,11,04,24.70
2017,09,05,11,05,24.70
2017,09,05,11,06,24.80
2017,09,05,11,07,24.80
2017,09,05,11,08,24.80
2017,09,05,11,09,24.90
2017,09,05,11,10,24.90
2017,09,05,11,11,25.00
2017,09,05,11,12,25.00
2017,09,05,11,13,25.10
2017,09,05,11,14,25.10
2017,09,05,11,15,25.10
2017,09,05,11,16,25.10
2017,09,05,11,17,25.10
2017,09,05,11,18,25.20
2017,09,05,11,19,25.20
2017,09,05,11,20,25.20
2017,09,05,11,21,25.20
2017,09,05,11,22,25.20
2017,09,05,11,23,25.30
2017,09,05,11,24,25.30
2017,09,05,11,25,25.40
2017,09,05,11,26,25.40
2017,09,05,11,27,25.50
2017,09,05,11,28,25.50
2017,09,05,11,29,25.60
2017,09,05,11,30,25.60
2017,09,05,11,31,25.60
2017,09,05,11,32,25.60
2017,09,05,11,33,25.60
2017,09,05,11,34,25.70
2017,09,05,11,35,25.70
2017,09,05,11,36,25.70
2017,09,05,11,37,25.70
2017,09,05,11,38,25.70
2017,09,05,11,39,25.70
2017,09,05,11,40,25.70
2017,09,05,11,41,25.80
2017,09,05,11,42,25.80
2017,09,05,11,43,25.80
2017,09,05,11,44,25.90
2017,09,05,11,45,25.90
2017,09,05,11,46,26.00
2017,09,05,11,47,26.10
2017,09,05,11,48,26.10
2017,09,05,11,49,26.20
2017,09,05,11,50,26.20
2017,09,05,11,51,26.20
2017,09,05,11,52,26.30
2017,09,05,11,53,26.30
2017,09,05,11,54,26.40
2017,09,05,11,55,26.40
2017,09,05,11,56,26.40
2017,09,05,11,57,26.50
2017,09,05,11,58,26.50
2017,09,05,11,59,26.50
2017,09,05,12,00,26.60
2017,09,05,12,01,26.60
2017,09,05,12,02,26.60
2017,09,05,12,03,26.60
2017,09,05,12,04,26.60
2017,09,05,12,05,26.70
2017,09,05,12,06,26.70
2017,09,05,12,07,26.70
2017,09,05,12,08,26.70
2017,09,05,12,09,26.80
2017,09,05,12,10,26.80
2017,09,05,12,11,26.80
2017,09,05,12,12,26.90
2017,09,05,12,13,26.90
2017,09,05,12,14,27.00
2017,09,05,12,15,27.00
2017,09,05,12,16,27.00
2017,09,05,12,17,27.00
2017,09,05,12,18,27.10
2017,09,05,12,19,27.10
2017,09,05,12,20,27.10
2017,09,05,12,21,27.10
2017,09,05,12,22,27.10
2017,09,05,12,23,27.20
2017,09,05,12,24,27.20
2017,09,05,12,25,27.20
2017,09,05,12,26,27.30
2017,09,05,12,27,27.40
2017,09,05,12,28,27.40
2017,09,05,12,29,27.50
2017,09,05,12,30,27.50
2017,09,05,12,31,27.60
2017,09,05,12,32,27.70
2017,09,05,12,33,27.70
2017,09,05,12,34,27.80
2017,09,05,12,35,27.80
2017,09,05,12,36,27.80
2017,09,05,12,37,27.80
2017,09,05,12,38,27.70
2017,09,05,12,39,27.70
2017,09,05,12,40,27.60
2017,09,05,12,41,27.50
2017,09,05,12,42,27.40
2017,09,05,12,43,27.40
2017,09,05,12,44,27.30
2017,09,05,12,45,27.30
2017,09,05,12,46,27.20
2017,09,05,12,47,27.10
2017,09,05,12,48,27.00
2017,09,05,12,49,26.90
2017,09,05,12,50,26.90
2017,09,05,12,51,26.80
2017,09,05,12,52,26.70
2017,09,05,12,53,26.70
2017,09,05,12,54,26.70
2017,09,05,12,55,26.70
2017,09,05,12,56,26.70
2017,09,05,12,57,26.60
2017,09,05,12,58,26.60
2017,09,05,12,59,26.60
2017,09,05,13,00,26.60
2017,09,05,13,01,26.60
2017,09,05,13,02,26.60
2017,09,05,13,03,26.60
2017,09,05,13,04,26.60
2017,09,05,13,05,26.60
2017,09,05,13,06,26.60
2017,09,05,13,07,26.60
2017,09,05,13,08,26.60
2017,09,05,13,09,26.60
2017,09,05,13,10,26.60
2017,09,05,13,11,26.70
2017,09,05,13,12,26.70
2017,09,05,13,13,26.70
2017,09,05,13,14,26.70
2017,09,05,13,15,26.70
2017,09,05,13,16,26.70
2017,09,05,13,17,26.70
2017,09,05,13,18,26.70
2017,09,05,13,19,26.70
2017,09,05,13,20,26.70
2017,09,05,13,21,26.70
2017,09,05,13,22,26.60
2017,09,05,13,23,26.60
2017,09,05,13,24,26.60
2017,09,05,13,25,26.60
2017,09,05,13,26,26.60
2017,09,05,13,27,26.60
2017,09,05,13,28,26.60
2017,09,05,13,29,26.60
2017,09,05,13,30,26.60
2017,09,05,13,31,26.60
2017,09,05,13,32,26.60
2017,09,05,13,33,26.60
2017,09,05,13,34,26.60
2017,09,05,13,35,26.60
2017,09,05,13,36,26.60
2017,09,05,13,37,26.60
2017,09,05,13,38,26.70
2017,09,05,13,39,26.70
2017,09,05,13,40,26.80
2017,09,05,13,41,26.80
2017,09,05,13,42,26.80
2017,09,05,13,43,26.80
2017,09,05,13,44,26.90
2017,09,05,13,45,26.90
2017,09,05,13,46,27.00
2017,09,05,13,47,27.00
2017,09,05,13,48,27.10
2017,09,05,13,49,27.10
2017,09,05,13,50,27.10
2017,09,05,13,51,27.10
2017,09,05,13,52,27.10
2017,09,05,13,53,27.10
2017,09,05,13,54,27.10
2017,09,05,13,55,27.10
2017,09,05,13,56,27.10
2017,09,05,13,57,27.10
2017,09,05,13,58,27.10
2017,09,05,13,59,27.10
2017,09,05,14,00,27.10
2017,09,05,14,01,27.10
2017,09,05,14,02,27.10
2017,09,05,14,03,27.20
2017,09,05,14,04,27.20
2017,09,05,14,05,27.30
2017,09,05,14,06,27.30
2017,09,05,14,07,27.40
2017,09,05,14,08,27.50
2017,09,05,14,09,27.50
2017,09,05,14,10,27.60
2017,09,05,14,11,27.70
2017,09,05,14,12,27.70
2017,09,05,14,13,27.80
2017,09,05,14,14,27.80
2017,09,05,14,15,27.90
2017,09,05,14,16,27.90
2017,09,05,14,17,28.00
2017,09,05,14,18,28.10
2017,09,05,14,19,28.10
2017,09,05,14,20,28.20
2017,09,05,14,21,28.20
2017,09,05,14,22,28.20
2017,09,05,14,23,28.20
2017,09,05,14,24,28.20
2017,09,05,14,25,28.20
2017,09,05,14,26,28.20
2017,09,05,14,27,28.10
2017,09,05,14,28,28.10
2017,09,05,14,29,28.00
2017,09,05,14,30,28.00
2017,09,05,14,31,28.00
2017,09,05,14,32,28.00
2017,09,05,14,33,28.00
2017,09,05,14,34,28.00
2017,09,05,14,35,27.90
2017,09,05,14,36,27.90
2017,09,05,14,37,27.90
2017,09,05,14,38,27.90
2017,09,05,14,39,27.80
2017,09,05,14,40,27.80
2017,09,05,14,41,27.70
2017,09,05,14,42,27.70
2017,09,05,14,43,27.70
2017,09,05,14,44,27.60
2017,09,05,14,45,27.60
2017,09,05,14,46,27.60
2017,09,05,14,47,27.60
2017,09,05,14,48,27.60
2017,09,05,14,49,27.60
2017,09,05,14,50,27.60
2017,09,05,14,51,27.60
2017,09,05,14,52,27.60
2017,09,05,14,53,27.60
2017,09,05,14,54,27.60
2017,09,05,14,55,27.60
2017,09,05,14,56,27.60
2017,09,05,14,57,27.60
2017,09,05,14,58,27.50
2017,09,05,14,59,27.40
2017,09,05,15,00,27.40
2017,09,05,15,01,27.30
2017,09,05,15,02,27.20
2017,09,05,15,03,27.20
2017,09,05,15,04,27.10
2017,09,05,15,05,27.10
2017,09,05,15,06,27.10
2017,09,05,15,07,27.00
2017,09,05,15,08,27.00
2017,09,05,15,09,26.90
2017,09,05,15,10,26.90
2017,09,05,15,11,26.80
2017,09,05,15,12,26.80
2017,09,05,15,13,26.80
2017,09,05,15,14,26.70
2017,09,05,15,15,26.70
2017,09,05,15,16,26.70
2017,09,05,15,17,26.60
2017,09,05,15,18,26.60
2017,09,05,15,19,26.60
2017,09,05,15,20,26.60
2017,09,05,15,21,26.60
2017,09,05,15,22,26.60
2017,09,05,15,23,26.60
2017,09,05,15,24,26.60
2017,09,05,15,25,26.60
2017,09,05,15,26,26.60
2017,09,05,15,27,26.60
2017,09,05,15,28,26.60
2017,09,05,15,29,26.70
2017,09,05,15,30,26.70
2017,09,05,15,31,26.70
2017,09,05,15,32,26.60
2017,09,05,15,33,26.60
2017,09,05,15,34,26.50
2017,09,05,15,35,26.40
2017,09,05,15,36,26.30
2017,09,05,15,37,26.20
2017,09,05,15,38,26.10
2017,09,05,15,39,26.10
2017,09,05,15,40,26.00
2017,09,05,15,41,26.00
2017,09,05,15,42,26.00
2017,09,05,15,43,26.00
2017,09,05,15,44,25.90
2017,09,05,15,45,25.90
2017,09,05,15,46,25.90
2017,09,05,15,47,25.90
2017,09,05,15,48,25.90
2017,09,05,15,49,25.90
2017,09,05,15,50,25.90
2017,09,05,15,51,26.00
2017,09,05,15,52,26.00
2017,09,05,15,53,26.10
2017,09,05,15,54,26.10
2017,09,05,15,55,26.20
2017,09,05,15,56,26.20
2017,09,05,15,57,26.20
2017,09,05,15,58,26.20
2017,09,05,15,59,26.30
2017,09,05,16,00,26.30
2017,09,05,16,01,26.30
2017,09,05,16,02,26.40
2017,09,05,16,03,26.40
2017,09,05,16,04,26.50
2017,09,05,16,05,26.60
2017,09,05,16,06,26.60
2017,09,05,16,07,26.70
2017,09,05,16,08,26.70
2017,09,05,16,09,26.70
2017,09,05,16,10,26.70
2017,09,05,16,11,26.70
2017,09,05,16,12,26.70
2017,09,05,16,13,26.70
2017,09,05,16,14,26.70
2017,09,05,16,15,26.70
2017,09,05,16,16,26.70
2017,09,05,16,17,26.60
2017,09,05,16,18,26.60
2017,09,05,16,19,26.50
2017,09,05,16,20,26.50
2017,09,05,16,21,26.40
2017,09,05,16,22,26.40
2017,09,05,16,23,26.30
2017,09,05,16,24,26.30
2017,09,05,16,25,26.30
2017,09,05,16,26,26.20
2017,09,05,16,27,26.20
2017,09,05,16,28,26.10
2017,09,05,16,29,26.10
2017,09,05,16,30,26.10
2017,09,05,16,31,26.10
2017,09,05,16,32,26.10
2017,09,05,16,33,26.20
2017,09,05,16,34,26.20
2017,09,05,16,35,26.20
2017,09,05,16,36,26.20
2017,09,05,16,37,26.20
2017,09,05,16,38,26.20
2017,09,05,16,39,26.20
2017,09,05,16,40,26.20
2017,09,05,16,41,26.20
2017,09,05,16,42,26.20
2017,09,05,16,43,26.20
2017,09,05,16,44,26.20
2017,09,05,16,45,26.20
2017,09,05,16,46,26.10
2017,09,05,16,47,26.10
2017,09,05,16,48,26.10
2017,09,05,16,49,26.10
2017,09,05,16,50,26.10
2017,09,05,16,51,26.10
2017,09,05,16,52,26.20
2017,09,05,16,53,26.20
2017,09,05,16,54,26.20
2017,09,05,16,55,26.30
2017,09,05,16,56,26.30
2017,09,05,16,57,26.40
2017,09,05,16,58,26.40
2017,09,05,16,59,26.50
2017,09,05,17,00,26.60
2017,09,05,17,01,26.60
2017,09,05,17,02,26.70
2017,09,05,17,03,26.80
2017,09,05,17,04,26.90
2017,09,05,17,05,27.00
2017,09,05,17,06,27.10
2017,09,05,17,07,27.10
2017,09,05,17,08,27.10
2017,09,05,17,09,27.20
2017,09,05,17,10,27.20
2017,09,05,17,11,27.30
2017,09,05,17,12,27.30
2017,09,05,17,13,27.30
2017,09,05,17,14,27.30
2017,09,05,17,15,27.20
2017,09,05,17,16,27.20
2017,09,05,17,17,27.10
2017,09,05,17,18,27.00
2017,09,05,17,19,27.00